GW5461 Weather Reports


time (UTC)temp
C
wind
direction
speed
KPH
gust
KPH
rain 1hr
cm
rain 24hr
cm
rain mn
cm
humidity
%
barometer
mb
20260503014002 18 305 0.0 0.0 0.00 0.00 0.00 39 1016.3
20260503013459 18 326 0.0 0.0 0.00 0.00 0.00 38 1016.6
20260503012956 18 292 0.0 0.0 0.00 0.00 0.00 38 1016.3
20260503012454 18 309 0.0 0.0 0.00 0.00 0.00 39 1016.6
20260503011950 18 286 0.0 0.0 0.00 0.00 0.00 38 1016.7
20260503011447 18 313 0.0 0.0 0.00 0.00 0.00 40 1016.8
20260503010944 17 308 0.0 0.0 0.00 0.00 0.00 41 1016.7
20260503010441 17 319 0.0 0.0 0.00 0.00 0.00 40 1016.6
20260503005938 17 315 0.0 0.0 0.00 0.00 0.00 39 1016.8
20260503005435 18 304 4.8 6.4 0.00 0.00 0.00 38 1016.8
20260503004932 18 325 0.0 0.0 0.00 0.00 0.00 38 1016.9
20260503004429 18 310 0.0 0.0 0.00 0.00 0.00 38 1016.8
20260503003926 18 319 0.0 1.6 0.00 0.00 0.00 37 1016.8
20260503003423 18 308 0.0 0.0 0.00 0.00 0.00 37 1017.1
20260503002921 18 306 0.0 1.6 0.00 0.00 0.00 37 1017.0
20260503002418 18 322 0.0 0.0 0.00 0.00 0.00 37 1017.0
20260503001914 18 315 0.0 0.0 0.00 0.00 0.00 38 1017.0
20260503001410 18 308 0.0 1.6 0.00 0.00 0.00 38 1017.1
20260503000908 18 321 0.0 0.0 0.00 0.00 0.00 37 1017.1
20260503000405 18 298 0.0 0.0 0.00 0.00 0.00 36 1017.1
20260502235902 19 309 0.0 0.0 0.00 0.00 0.00 35 1017.1
20260502235359 18 320 0.0 0.0 0.00 0.00 0.00 36 1017.3
20260502234856 18 300 0.0 0.0 0.00 0.00 0.00 36 1017.3
20260502234353 19 290 0.0 0.0 0.00 0.00 0.00 35 1017.2
20260502233849 19 266 0.0 0.0 0.00 0.00 0.00 35 1017.4
20260502233345 20 264 6.4 9.7 0.00 0.00 0.00 35 1017.3
20260502232843 19 340 6.4 6.4 0.00 0.00 0.00 35 1017.1
20260502232339 19 291 0.0 0.0 0.00 0.00 0.00 35 1017.6
20260502231835 20 333 4.8 4.8 0.00 0.00 0.00 34 1017.6
20260502231333 20 301 0.0 0.0 0.00 0.00 0.00 34 1017.6
20260502230831 21 312 3.2 3.2 0.00 0.00 0.00 33 1017.7
20260502230329 20 276 0.0 0.0 0.00 0.00 0.00 35 1017.8
20260502225826 18 296 1.6 1.6 0.00 0.00 0.00 36 1017.8
20260502225322 18 301 0.0 1.6 0.00 0.00 0.00 37 1017.9
20260502224819 19 319 1.6 1.6 0.00 0.00 0.00 37 1017.9
20260502224315 19 327 0.0 0.0 0.00 0.00 0.00 37 1018.0
20260502223813 18 155 0.0 1.6 0.00 0.00 0.00 37 1018.1
20260502223311 18 295 6.4 6.4 0.00 0.00 0.00 37 1017.9
20260502222808 18 298 0.0 0.0 0.00 0.00 0.00 37 1018.3
20260502222306 20 305 0.0 1.6 0.00 0.00 0.00 36 1018.3
20260502221801 20 304 0.0 0.0 0.00 0.00 0.00 35 1018.3
20260502221257 20 315 0.0 1.6 0.00 0.00 0.00 36 1018.4
20260502220755 19 319 3.2 4.8 0.00 0.00 0.00 36 1018.5
20260502220250 18 337 3.2 4.8 0.00 0.00 0.00 37 1018.7
20260502215747 20 294 4.8 4.8 0.00 0.00 0.00 36 1018.5
20260502215244 19 260 6.4 6.4 0.00 0.00 0.00 37 1018.8
20260502214742 21 289 1.6 1.6 0.00 0.00 0.00 35 1018.7
20260502214238 22 321 6.4 9.7 0.00 0.00 0.00 33 1019.0
20260502213736 20 322 0.0 1.6 0.00 0.00 0.00 35 1019.0
20260502213233 19 223 0.0 0.0 0.00 0.00 0.00 37 1018.9
20260502212732 20 307 0.0 1.6 0.00 0.00 0.00 37 1019.2
20260502212229 20 319 0.0 0.0 0.00 0.00 0.00 36 1019.0
20260502211725 20 283 1.6 3.2 0.00 0.00 0.00 36 1019.2
20260502211222 20 351 3.2 3.2 0.00 0.00 0.00 35 1019.3
20260502210719 20 319 6.4 6.4 0.00 0.00 0.00 36 1019.3
20260502210217 18 185 0.0 0.0 0.00 0.00 0.00 38 1019.2
20260502205714 18 309 4.8 6.4 0.00 0.00 0.00 38 1019.4
20260502205210 18 328 1.6 3.2 0.00 0.00 0.00 38 1019.5
20260502204707 17 272 3.2 4.8 0.00 0.00 0.00 39 1019.4
20260502204206 20 320 4.8 6.4 0.00 0.00 0.00 38 1019.5
20260502203703 19 302 4.8 6.4 0.00 0.00 0.00 38 1019.4
20260502203201 20 355 4.8 6.4 0.00 0.00 0.00 38 1019.8
20260502202659 20 284 9.7 16.1 0.00 0.00 0.00 37 1019.7
20260502202158 21 333 0.0 0.0 0.00 0.00 0.00 37 1019.8
20260502201655 19 355 1.6 1.6 0.00 0.00 0.00 38 1019.8
20260502201152 18 276 3.2 3.2 0.00 0.00 0.00 39 1019.8
20260502200647 20 305 3.2 4.8 0.00 0.00 0.00 38 1020.1
20260502200144 18 286 1.6 3.2 0.00 0.00 0.00 39 1019.9
20260502195643 18 301 3.2 3.2 0.00 0.00 0.00 39 1020.1
20260502195138 17 336 4.8 9.7 0.00 0.00 0.00 41 1020.1
20260502194635 17 309 1.6 1.6 0.00 0.00 0.00 42 1020.1
20260502194132 17 347 4.8 4.8 0.00 0.00 0.00 41 1020.3
20260502193628 18 333 0.0 0.0 0.00 0.00 0.00 40 1020.1
20260502193126 18 350 6.4 6.4 0.00 0.00 0.00 41 1020.3
20260502192621 18 325 4.8 4.8 0.00 0.00 0.00 40 1020.3
20260502192119 18 337 3.2 3.2 0.00 0.00 0.00 40 1020.5
20260502191615 17 319 4.8 6.4 0.00 0.00 0.00 43 1020.4
20260502191113 18 319 8.0 9.7 0.00 0.00 0.00 41 1020.5
20260502190610 18 337 3.2 4.8 0.00 0.00 0.00 40 1020.2
20260502190108 18 332 3.2 3.2 0.00 0.00 0.00 39 1020.3
20260502185602 18 293 0.0 1.6 0.00 0.00 0.00 40 1020.5
20260502185100 18 315 3.2 4.8 0.00 0.00 0.00 38 1020.5
20260502184556 18 333 1.6 3.2 0.00 0.00 0.00 40 1020.6
20260502184051 18 295 1.6 3.2 0.00 0.00 0.00 40 1020.5
20260502183548 18 341 1.6 1.6 0.00 0.00 0.00 39 1020.5
20260502183044 18 324 3.2 4.8 0.00 0.00 0.00 40 1020.8
20260502182539 16 332 1.6 3.2 0.00 0.00 0.00 43 1020.8
20260502182035 16 337 3.2 4.8 0.00 0.00 0.00 42 1020.8
20260502181533 17 321 4.8 6.4 0.00 0.00 0.00 41 1020.9
20260502181032 17 323 3.2 4.8 0.00 0.00 0.00 41 1020.8
20260502180528 17 219 3.2 4.8 0.00 0.00 0.00 42 1020.8
20260502170447 19 296 4.8 4.8 0.00 0.00 0.00 38 1021.0
20260502163930 17 345 1.6 3.2 0.00 0.00 0.00 40 1020.9
20260502163427 17 4 3.2 4.8 0.00 0.00 0.00 41 1021.0
20260502162925 17 265 0.0 0.0 0.00 0.00 0.00 41 1020.9
20260502162421 17 354 0.0 3.2 0.00 0.00 0.00 40 1020.9
20260502161918 17 315 0.0 0.0 0.00 0.00 0.00 41 1020.8
20260502161414 17 26 0.0 0.0 0.00 0.00 0.00 42 1020.9
20260502160913 17 313 0.0 1.6 0.00 0.00 0.00 42 1020.9
20260502160411 17 5 4.8 6.4 0.00 0.00 0.00 41 1020.9
20260502151849 16 230 0.0 0.0 0.00 0.00 0.00 43 1020.4
20260502151345 16 56 3.2 3.2 0.00 0.00 0.00 43 1020.4
20260502150843 15 254 0.0 0.0 0.00 0.00 0.00 43 1020.4
20260502150339 15 272 1.6 1.6 0.00 0.00 0.00 46 1020.4
20260502130727 8 307 0.0 0.0 0.00 0.00 0.00 60 1020.0
20260502130225 8 337 0.0 0.0 0.00 0.00 0.00 61 1019.8
20260502123711 6 350 0.0 3.2 0.00 0.00 0.00 65 1019.8
20260502123207 5 312 0.0 0.0 0.00 0.00 0.00 66 1019.5
20260502122704 5 337 4.8 4.8 0.00 0.00 0.00 65 1019.5
20260502122200 5 345 1.6 3.2 0.00 0.00 0.00 65 1019.5
20260502121659 6 342 1.6 4.8 0.00 0.00 0.00 64 1019.3
20260502121156 5 359 1.6 3.2 0.00 0.00 0.00 64 1019.3
20260502120653 6 282 3.2 3.2 0.00 0.00 0.00 63 1019.2
20260502120150 6 338 3.2 4.8 0.00 0.00 0.00 63 1019.1
20260502115647 6 330 0.0 0.0 0.00 0.00 0.00 62 1019.3
20260502115143 7 341 0.0 1.6 0.00 0.00 0.00 60 1019.3
20260502114639 7 323 0.0 1.6 0.00 0.00 0.00 60 1018.9
20260502114137 7 308 0.0 0.0 0.00 0.00 0.00 60 1019.1
20260502113634 7 347 3.2 3.2 0.00 0.00 0.00 58 1019.1
20260502113132 8 339 1.6 3.2 0.00 0.00 0.00 56 1019.1
20260502112630 8 312 0.0 1.6 0.00 0.00 0.00 54 1018.5
20260502112127 8 252 0.0 0.0 0.00 0.00 0.00 54 1018.4
20260502111624 8 349 1.6 3.2 0.00 0.00 0.00 54 1018.4
20260502111122 8 8 1.6 1.6 0.00 0.00 0.00 54 1018.3
20260502110620 8 124 0.0 0.0 0.00 0.00 0.00 54 1018.1
20260502110117 8 11 0.0 0.0 0.00 0.00 0.00 54 1018.2
20260502105614 7 302 4.8 4.8 0.00 0.00 0.00 55 1018.2
20260502105111 8 337 1.6 3.2 0.00 0.00 0.00 53 1018.1
20260502104608 9 342 1.6 4.8 0.00 0.00 0.00 51 1018.1
20260502104106 9 286 0.0 1.6 0.00 0.00 0.00 51 1018.0
20260502103603 9 312 0.0 1.6 0.00 0.00 0.00 51 1017.9
20260502103101 10 302 0.0 0.0 0.00 0.00 0.00 51 1017.8
20260502102557 10 271 1.6 3.2 0.00 0.00 0.00 49 1017.8
20260502102054 10 308 0.0 3.2 0.00 0.00 0.00 49 1017.6
20260502101552 10 63 0.0 1.6 0.00 0.00 0.00 49 1017.6
20260502101050 10 324 0.0 0.0 0.00 0.00 0.00 49 1017.2
20260502100548 10 359 1.6 3.2 0.00 0.00 0.00 48 1017.3
20260502091523 10 329 3.2 4.8 0.00 0.00 0.00 46 1017.0
20260502091021 10 64 1.6 1.6 0.00 0.00 0.00 45 1017.1
20260502090517 10 316 1.6 1.6 0.00 0.00 0.00 45 1016.9
20260502071412 11 324 0.0 0.0 0.00 0.00 0.00 39 1016.0
20260502070910 11 310 0.0 0.0 0.00 0.00 0.00 39 1016.3
20260502070408 11 322 0.0 0.0 0.00 0.00 0.00 39 1016.3
20260502065906 11 322 0.0 0.0 0.00 0.00 0.00 38 1016.1
20260502065404 11 317 0.0 0.0 0.00 0.00 0.00 39 1016.2
20260502064902 11 311 0.0 0.0 0.00 0.00 0.00 39 1016.2
20260502064400 11 333 0.0 0.0 0.00 0.00 0.00 38 1016.3
20260502063856 11 332 1.6 1.6 0.00 0.00 0.00 38 1016.2
20260502063354 11 312 0.0 0.0 0.00 0.00 0.00 39 1016.3
20260502062851 11 313 0.0 0.0 0.00 0.00 0.00 39 1016.3
20260502062349 11 315 0.0 0.0 0.00 0.00 0.00 39 1016.3
20260502061848 10 319 0.0 0.0 0.00 0.00 0.00 39 1015.9
20260502061345 10 310 0.0 0.0 0.00 0.00 0.00 39 1016.1
20260502060841 11 314 0.0 0.0 0.00 0.00 0.00 38 1016.1
20260502060336 12 337 0.0 1.6 0.00 0.00 0.00 36 1016.0
20260502055833 11 313 0.0 0.0 0.00 0.00 0.00 37 1016.1
20260502055331 11 313 0.0 0.0 0.00 0.00 0.00 38 1016.1
20260502054831 11 314 0.0 0.0 0.00 0.00 0.00 38 1016.1
20260502054328 11 311 3.2 3.2 0.00 0.00 0.00 38 1016.1
20260502053825 10 316 1.6 3.2 0.00 0.00 0.00 39 1016.0
20260502053322 10 314 0.0 0.0 0.00 0.00 0.00 40 1016.1
20260502052820 10 309 0.0 0.0 0.00 0.00 0.00 39 1016.1
20260502052318 11 311 0.0 0.0 0.00 0.00 0.00 38 1016.1
20260502051815 11 315 3.2 3.2 0.00 0.00 0.00 37 1016.0
20260502051314 12 326 3.2 3.2 0.00 0.00 0.00 37 1016.1
20260502050810 12 308 1.6 1.6 0.00 0.00 0.00 35 1016.0
20260502050306 12 323 1.6 3.2 0.00 0.00 0.00 35 1016.0
20260502045803 11 323 1.6 3.2 0.00 0.00 0.00 35 1016.0
20260502045300 12 303 0.0 0.0 0.00 0.00 0.00 34 1016.0
20260502044757 12 331 1.6 1.6 0.00 0.00 0.00 33 1016.0
20260502044253 12 330 3.2 3.2 0.00 0.00 0.00 33 1016.1
20260502043751 12 326 0.0 0.0 0.00 0.00 0.00 33 1015.9
20260502043248 12 308 0.0 0.0 0.00 0.00 0.00 33 1016.0
20260502042747 12 316 0.0 0.0 0.00 0.00 0.00 33 1015.8
20260502042245 13 322 0.0 0.0 0.00 0.00 0.00 32 1016.0
20260502041743 13 343 0.0 0.0 0.00 0.00 0.00 32 1016.0
20260502041240 14 269 0.0 0.0 0.00 0.00 0.00 31 1016.1
20260502040736 14 283 0.0 0.0 0.00 0.00 0.00 31 1015.9
20260502040233 13 307 0.0 0.0 0.00 0.00 0.00 32 1016.0
20260502035729 13 282 0.0 0.0 0.00 0.00 0.00 33 1016.0
20260502035226 13 300 0.0 0.0 0.00 0.00 0.00 33 1015.8
20260502034724 13 298 0.0 0.0 0.00 0.00 0.00 33 1015.8
20260502034222 13 296 0.0 0.0 0.00 0.00 0.00 33 1016.0
20260502033720 13 315 0.0 0.0 0.00 0.00 0.00 32 1015.9
20260502033217 13 321 0.0 0.0 0.00 0.00 0.00 32 1015.8
20260502032714 14 350 1.6 1.6 0.00 0.00 0.00 31 1015.8
20260502032209 15 296 1.6 1.6 0.00 0.00 0.00 29 1015.9
20260502031708 15 318 4.8 4.8 0.00 0.00 0.00 28 1015.8
20260502031205 16 297 3.2 4.8 0.00 0.00 0.00 27 1015.6
20260502030704 16 304 1.6 3.2 0.00 0.00 0.00 28 1015.6
20260502030202 16 302 0.0 0.0 0.00 0.00 0.00 27 1015.6
20260502025658 17 307 0.0 0.0 0.00 0.00 0.00 27 1015.7
20260502025156 17 283 0.0 0.0 0.00 0.00 0.00 28 1015.5
20260502024654 17 135 0.0 0.0 0.00 0.00 0.00 27 1015.4
20260502024152 17 268 0.0 0.0 0.00 0.00 0.00 29 1015.2
20260502023650 17 305 0.0 0.0 0.00 0.00 0.00 29 1015.4
20260502023147 18 237 0.0 0.0 0.00 0.00 0.00 28 1015.1
20260502022644 17 328 0.0 0.0 0.00 0.00 0.00 29 1015.0
20260502022141 17 316 0.0 0.0 0.00 0.00 0.00 29 1015.4
20260502021638 18 320 0.0 0.0 0.00 0.00 0.00 29 1015.4
20260502021135 20 320 0.0 0.0 0.00 0.00 0.00 27 1015.4
20260502020632 20 101 0.0 0.0 0.00 0.00 0.00 27 1015.2
20260502020129 20 319 0.0 0.0 0.00 0.00 0.00 27 1015.2
20260502015627 20 303 0.0 0.0 0.00 0.00 0.00 26 1015.1
20260502015123 21 302 0.0 0.0 0.00 0.00 0.00 25 1015.0
20260502014620 21 299 0.0 0.0 0.00 0.00 0.00 25 1015.1